Location: Gebenbach
(49.5378°N, 11.8735°E)
Time: 03:09:18
(UTC+00:00)

Meteor 2-10 Rocket - Pass Details

Date: 29 October 2020
Orbit: 733 x 885 km, 81.2° (Epoch: 27 November)

Event Time Altitude Azimuth Distance (km) Brightness Sun altitude
Rises 17:48:57 0° 191° (SSW) 3,289 6.9 -19.0°
Reaches altitude 10° 17:51:21 10° 192° (SSW) 2,341 6.1 -19.4°
Maximum altitude 17:56:37 85° 281° (W) 774 3.5 -20.2°
Drops below altitude 10° 18:01:44 10° 11° (N) 2,277 5.9 -21.0°
Sets 18:04:03 0° 12° (NNE) 3,193 6.6 -21.4°
